sat.trackr.live / text

‹ back to catalog

QIANFAN-197

NORAD 69415 · 2026-125Q

PAYLOAD ACTIVE UNKNOWN

§ Identity

Operator
Country
PRC
Launch date
2026-06-05
Launch site
WSC
Launch vehicle
Mass (kg)
RCS (m²)

External: N2YO · Heavens-Above · Gunter

§ Orbital elements

Epoch: 2026-09-20T03:42:33.227136Z

Period
106.59 min
Inclination
88.9879°
Eccentricity
0.0002030
Mean motion
13.51023723 rev/d
Perigee alt
1,067.0 km
Apogee alt
1,070.0 km
Semi-major
7,446.6 km
B*
2.4662e-5
RAAN
270.3051°
Arg perigee
100.2792°
Mean anomaly
259.8588°
Rev number
1,478

§ Raw data

QIANFAN-1971 69415U 26125Q   26263.15455124  .00000028  00000+0  24662-4 0  99902 69415  88.9879 270.3051 0002030 100.2792 259.8588 13.51023723 14782

JSON: /api/v1/satellites/69415 · /tle

For live sub-satellite position, see the globe view (requires WebGL).

§ Visibility from observer

Set your observer location to see the next 7 days of passes ≥ 10°. The values pass through the URL so the page stays shareable.

No JS? Fill the form by hand. The geolocation button needs JavaScript.